Wind_Speed
33 30 31 30 27 26 25 25 24 24 21 21 19 15 14 11 11 9 8 7 7 7 11 13 12 13 10 11 10 11 10 10 11 15 18 18 16 18 18 20 20 18 18
31 31 32 30 27 26 27 27 26 26 23 21 19 17 15 14 12 12 10 9 9 9 11 14 17 16 17 18 18 17 16 15 14 16 17 19 18 19 20 24 25 24 22
31 33 33 30 28 29 29 29 29 29 25 22 20 18 16 15 13 12 13 13 12 13 15 17 19 22 21 20 20 21 20 19 17 17 16 18 21 23 21 22 24 21 22
32 33 32 29 29 31 31 30 31 28 24 22 20 19 16 13 14 13 14 15 17 18 19 20 21 23 25 26 22 21 21 20 21 22 21 21 18 21 21 24 28 28 27
34 34 32 32 32 34 33 32 32 26 23 22 20 20 19 19 19 18 18 19 21 22 24 25 23 23 25 25 27 26 24 24 24 24 24 26 26 24 23 23 25 26 28
37 35 33 32 34 34 33 33 28 25 23 21 21 21 23 24 22 23 23 24 25 25 25 27 26 24 25 25 27 28 28 27 24 25 25 25 26 27 28 28 26 24 22
39 37 36 36 36 34 33 30 26 25 23 21 20 22 24 27 29 28 27 29 29 29 25 26 28 27 26 25 25 28 27 27 26 24 25 23 22 21 23 26 28 25 24
38 37 39 37 36 34 31 28 25 23 22 20 21 24 28 31 32 33 33 29 30 29 29 25 29 32 34 27 24 26 28 28 29 27 27 25 26 24 25 27 29 26 24
41 40 38 35 34 31 28 25 23 22 21 24 27 31 34 35 34 34 34 31 30 30 30 29 29 32 35 27 22 24 28 29 29 27 23 24 27 30 31 28 28 27 22
46 40 37 34 31 29 27 24 24 24 27 30 33 34 35 35 35 33 33 32 31 32 32 28 27 31 27 27 24 22 26 31 29 29 27 28 26 27 25 22 24 25 22
39 38 35 33 32 31 29 29 30 30 31 34 32 33 33 33 34 33 32 31 33 34 33 32 25 24 26 29 26 23 25 30 31 30 31 29 22 22 21 20 22 23 23
37 36 33 34 34 33 33 32 31 33 33 32 32 33 32 32 32 31 30 31 30 32 32 33 26 28 27 30 27 24 25 29 31 29 28 24 22 21 19 20 22 18 14
36 36 35 37 35 35 33 32 33 31 30 31 32 30 30 29 28 26 27 28 31 31 31 30 30 25 31 27 26 25 25 27 28 26 23 21 19 21 21 21 20 17 17
39 38 39 38 36 34 35 32 28 29 29 30 29 28 26 24 25 25 24 26 27 29 28 30 26 28 29 26 25 28 26 28 28 27 25 25 23 18 18 21 21 21 21
40 42 43 39 39 37 31 26 28 29 29 28 27 25 23 22 22 22 23 26 23 25 28 24 18 22 23 23 25 28 29 30 31 29 30 27 25 25 24 23 22 21 20
45 46 47 44 36 32 26 27 30 30 29 28 25 23 21 20 20 20 20 22 24 23 23 28 29 28 22 24 24 24 30 33 31 30 31 27 26 23 21 19 17 16 17
48 49 42 36 35 29 26 29 29 29 28 27 25 23 22 20 19 18 18 18 19 19 20 21 29 28 28 24 24 24 26 24 31 32 32 30 30 29 29 28 27 24 22
37 36 36 36 30 26 28 29 30 30 27 26 26 24 22 21 19 18 18 17 17 19 21 21 23 31 33 36 34 32 30 30 29 31 31 36 36 36 34 32 32 30 29
35 35 33 29 27 28 30 31 31 29 26 27 27 25 24 23 21 20 20 19 19 18 20 25 27 29 31 30 31 35 38 36 35 32 33 35 37 40 42 40 39 38 38
28 28 28 27 29 32 33 33 32 28 28 30 29 28 27 27 25 24 23 22 22 22 22 22 23 27 36 32 32 32 31 37 40 41 40 37 37 40 42 42 41 44 44
30 30 31 33 35 35 35 35 34 30 30 32 31 30 28 26 25 24 24 23 23 24 25 25 25 23 23 31 32 36 34 34 36 36 40 45 43 43 42 41 43 45 45
33 34 36 37 36 34 35 35 32 31 32 34 34 32 31 30 31 30 29 29 29 28 28 28 28 28 27 27 29 32 35 37 35 40 44 40 42 45 44 43 46 45 44
34 35 35 36 36 35 35 33 32 32 33 35 36 36 35 35 36 35 35 35 35 34 34 34 33 32 33 34 35 36 36 38 39 41 39 47 47 44 42 45 43 47 50
35 34 35 34 33 33 33 32 30 31 32 34 35 36 35 37 38 38 39 40 39 38 39 39 39 38 38 39 39 38 38 39 39 40 40 39 42 51 46 45 47 50 52
36 34 33 32 31 31 30 32 31 31 31 32 33 34 35 36 38 38 39 41 42 42 43 44 43 43 43 42 41 40 39 38 38 39 40 38 36 39 45 47 46 45 44
35 34 34 33 33 31 31 33 33 33 34 34 35 36 37 38 40 41 42 44 45 47 48 48 46 44 44 44 43 43 42 41 40 40 39 38 39 39 38 41 45 50 50
Wind_Direction
263 268 272 277 279 281 282 291 299 299 297 295 297 301 300 298 302 307 313 322 320 309 298 287 284 265 246 232 223 222 205 188 204 199 185 193 199 196 191 203 224 235 250
260 264 268 272 275 272 278 288 295 294 292 289 288 291 295 294 299 300 296 300 298 289 281 277 272 275 262 258 245 235 233 225 219 217 211 213 217 200 209 220 227 237 241
258 262 265 268 267 270 278 287 292 290 285 282 283 284 289 297 299 302 300 298 292 287 278 273 268 262 269 265 250 250 249 245 239 238 229 230 229 234 238 238 243 243 237
256 259 262 264 268 274 279 286 288 285 277 275 278 284 285 290 296 299 296 297 296 290 275 268 269 265 258 258 261 254 251 253 257 256 255 258 253 242 238 233 237 237 242
254 257 262 267 270 273 280 283 282 274 269 270 275 283 284 286 293 295 293 290 288 283 275 271 269 268 265 260 256 256 254 252 251 252 256 256 259 253 247 239 243 248 251
256 259 264 266 268 273 277 277 271 264 265 266 274 278 285 289 292 293 291 288 283 280 275 270 270 269 267 265 261 254 253 254 246 250 249 253 258 262 258 250 252 249 249
257 262 264 264 267 271 271 266 260 260 262 267 273 278 284 290 294 294 289 283 280 281 277 274 268 264 264 264 264 259 253 253 244 250 253 254 254 266 269 261 249 253 255
258 261 263 264 267 266 262 256 255 259 263 267 273 282 289 290 291 289 285 283 274 277 279 275 277 262 257 258 262 262 257 252 253 255 251 249 258 260 270 266 264 262 258
257 263 263 263 264 259 251 252 253 256 262 270 276 286 292 291 285 281 280 278 273 273 273 274 275 274 264 255 261 264 255 252 252 256 248 252 262 267 267 265 258 253 254
256 259 257 259 256 247 248 247 249 255 263 272 283 291 293 289 284 278 277 271 268 267 272 270 286 268 261 261 260 263 257 247 248 248 251 262 269 269 263 258 249 246 253
251 254 256 256 247 245 245 245 253 262 272 279 286 290 288 286 282 277 272 266 266 265 267 268 274 276 268 259 265 261 258 246 246 248 254 264 262 264 258 251 251 257 261
254 250 255 251 242 242 245 253 261 268 274 281 286 288 287 284 281 276 273 267 262 266 266 266 267 265 272 263 262 253 254 243 245 249 252 250 251 250 247 249 253 246 234
242 250 249 243 239 244 252 259 264 270 277 283 286 284 283 280 277 277 275 268 260 262 259 266 264 263 264 262 263 251 249 244 246 246 238 237 242 240 243 249 229 224 241
243 246 244 238 240 246 252 259 266 275 282 286 285 281 277 273 277 275 274 270 262 256 259 258 264 251 249 251 257 256 247 244 240 233 227 231 230 233 237 237 226 242 255
239 241 240 238 241 246 252 257 268 277 284 286 282 271 266 268 272 274 276 272 267 262 254 249 253 248 238 249 255 254 242 239 234 232 230 230 228 234 233 237 242 246 252
237 241 239 244 249 246 251 262 269 276 284 284 271 259 260 265 273 276 272 271 264 261 264 250 254 265 250 243 253 255 252 245 239 236 234 225 222 225 230 231 228 236 246
239 243 243 244 241 243 256 265 270 277 280 273 255 252 254 259 266 269 269 263 262 261 261 252 246 243 242 251 251 255 260 258 251 244 233 220 221 229 233 237 238 238 236
237 239 239 239 242 252 262 266 273 277 277 256 247 247 249 253 257 262 264 263 259 258 258 258 256 253 255 255 257 256 250 252 253 249 244 234 235 237 236 236 242 243 243
236 237 240 244 250 256 263 266 273 276 268 248 245 243 246 250 252 256 258 262 264 265 268 267 264 260 258 260 257 253 254 249 246 249 249 248 249 250 247 245 243 246 244
238 242 245 249 257 264 266 268 272 272 260 247 241 244 250 251 252 253 257 260 262 266 269 274 276 269 251 255 261 262 260 259 259 250 250 250 248 253 251 253 252 246 249
247 250 253 257 262 264 267 270 272 267 257 246 243 247 246 245 247 249 253 258 263 268 270 270 272 273 263 247 255 260 259 259 263 265 264 256 251 251 252 256 256 257 253
249 253 257 260 266 268 270 272 269 262 256 250 245 243 244 248 251 252 256 259 262 264 268 270 270 269 267 261 258 254 256 259 262 264 256 258 256 253 252 255 253 253 253
251 254 259 264 266 267 267 266 261 257 254 251 249 248 247 250 253 256 259 261 261 261 264 267 268 269 268 267 265 264 264 263 266 265 265 255 254 255 256 254 255 254 253
253 256 258 260 262 263 262 258 255 255 255 253 253 253 255 256 258 260 262 263 264 264 265 265 266 269 267 266 266 266 266 268 268 268 267 270 261 252 252 251 252 253 254
252 252 253 257 258 259 257 256 254 254 255 258 259 261 261 261 262 262 263 264 266 267 267 268 268 268 267 266 264 265 265 266 267 268 267 268 269 263 259 257 256 257 255
256 259 261 258 258 258 258 257 257 258 259 259 260 262 264 265 265 266 267 267 267 267 268 269 269 267 265 264 263 263 264 263 263 265 267 267 265 266 267 263 260 263 264
Height
5737 5739 5739 5739 5740 5739 5739 5739 5738 5737 5736 5735 5734 5733 5733 5731 5730 5729 5728 5727 5726 5725 5724 5724 5722 5722 5723 5722 5722 5723 5722 5723 5723 5725 5727 5729 5730 5731 5734 5735 5735 5736 5738
5730 5731 5732 5732 5733 5733 5732 5733 5732 5732 5731 5731 5730 5729 5729 5728 5726 5726 5725 5724 5724 5723 5721 5720 5720 5720 5720 5720 5721 5720 5720 5721 5722 5724 5723 5726 5728 5729 5730 5731 5731 5732 5733
5723 5723 5724 5725 5726 5726 5726 5727 5726 5726 5726 5725 5725 5725 5724 5724 5723 5722 5722 5721 5720 5720 5719 5717 5716 5716 5716 5715 5716 5717 5717 5718 5719 5720 5722 5724 5725 5726 5727 5727 5727 5727 5728
5715 5715 5716 5717 5719 5719 5719 5720 5720 5719 5719 5719 5720 5720 5720 5720 5719 5718 5718 5717 5716 5715 5714 5713 5712 5710 5710 5711 5712 5712 5713 5714 5715 5716 5718 5718 5719 5721 5722 5723 5723 5723 5724
5706 5707 5709 5711 5711 5711 5712 5713 5712 5713 5713 5714 5714 5715 5715 5715 5714 5714 5713 5712 5710 5709 5708 5708 5707 5707 5705 5705 5706 5707 5708 5710 5711 5712 5714 5715 5716 5716 5718 5719 5720 5719 5719
5698 5699 5702 5703 5703 5703 5704 5704 5705 5706 5706 5707 5708 5709 5708 5709 5709 5708 5707 5705 5704 5703 5702 5702 5702 5701 5700 5700 5700 5701 5703 5704 5706 5707 5708 5708 5710 5710 5711 5712 5714 5714 5714
5690 5692 5694 5694 5695 5695 5695 5696 5697 5699 5699 5701 5701 5702 5702 5701 5700 5700 5700 5698 5696 5696 5695 5695 5694 5695 5695 5694 5693 5694 5696 5697 5699 5701 5702 5703 5704 5705 5705 5705 5706 5708 5709
5681 5683 5684 5685 5686 5687 5687 5689 5690 5692 5693 5694 5695 5695 5695 5694 5692 5691 5690 5689 5689 5689 5689 5688 5687 5687 5687 5688 5687 5687 5688 5691 5692 5693 5696 5697 5698 5699 5700 5700 5702 5702 5703
5672 5674 5675 5676 5677 5678 5679 5682 5684 5684 5686 5687 5688 5687 5686 5684 5683 5682 5680 5680 5680 5681 5680 5681 5680 5679 5680 5681 5681 5681 5682 5684 5685 5687 5689 5691 5692 5693 5694 5695 5695 5696 5697
5661 5664 5665 5667 5668 5670 5672 5674 5676 5677 5678 5679 5679 5679 5677 5675 5673 5671 5671 5671 5671 5672 5673 5672 5672 5672 5672 5674 5675 5675 5676 5678 5679 5681 5683 5685 5685 5686 5687 5688 5689 5690 5692
5650 5653 5655 5657 5660 5662 5664 5666 5668 5669 5670 5670 5669 5669 5667 5665 5663 5662 5662 5662 5662 5663 5664 5665 5665 5665 5665 5667 5668 5669 5670 5671 5673 5675 5678 5679 5679 5680 5681 5683 5684 5685 5686
5640 5642 5645 5648 5651 5653 5656 5658 5660 5660 5660 5660 5659 5658 5657 5655 5653 5653 5652 5653 5653 5654 5656 5657 5657 5658 5659 5660 5661 5662 5664 5665 5667 5669 5672 5673 5674 5675 5676 5678 5679 5680 5681
5630 5633 5635 5638 5641 5644 5647 5649 5650 5651 5651 5650 5649 5648 5647 5646 5644 5643 5643 5643 5645 5646 5648 5649 5650 5651 5652 5653 5655 5655 5657 5659 5661 5664 5666 5668 5669 5670 5671 5673 5674 5676 5678
5620 5623 5626 5628 5631 5635 5637 5639 5640 5641 5641 5640 5639 5638 5637 5637 5636 5635 5635 5635 5636 5638 5640 5642 5643 5644 5646 5647 5648 5650 5651 5653 5656 5658 5660 5662 5663 5665 5667 5668 5670 5672 5674
5610 5613 5616 5618 5620 5624 5627 5629 5631 5632 5632 5630 5629 5629 5629 5629 5629 5628 5628 5628 5629 5630 5633 5636 5637 5638 5639 5640 5642 5644 5645 5647 5650 5652 5654 5656 5658 5660 5662 5664 5666 5667 5668
5599 5603 5605 5608 5612 5615 5617 5620 5622 5622 5622 5620 5620 5621 5621 5622 5622 5621 5622 5623 5623 5624 5626 5629 5631 5633 5634 5635 5637 5638 5639 5641 5643 5646 5648 5650 5653 5655 5657 5659 5660 5662 5663
5588 5592 5597 5601 5603 5606 5609 5611 5612 5612 5612 5611 5612 5613 5614 5615 5615 5615 5617 5617 5617 5617 5620 5622 5624 5626 5628 5629 5631 5632 5633 5634 5636 5639 5643 5645 5647 5649 5651 5653 5655 5656 5657
5580 5584 5588 5591 5594 5597 5601 5602 5603 5603 5602 5603 5604 5606 5607 5608 5608 5610 5611 5612 5612 5612 5614 5616 5617 5618 5620 5621 5623 5625 5627 5628 5630 5632 5634 5638 5640 5642 5644 5646 5648 5650 5651
5571 5575 5579 5583 5586 5589 5591 5593 5593 5594 5594 5595 5596 5598 5600 5602 5601 5603 5604 5605 5606 5607 5607 5609 5610 5611 5612 5613 5614 5615 5618 5620 5622 5623 5625 5628 5630 5633 5635 5637 5639 5641 5642
5563 5567 5571 5574 5577 5580 5582 5583 5583 5584 5585 5586 5588 5589 5592 5593 5594 5596 5597 5598 5598 5599 5600 5600 5601 5601 5602 5603 5605 5606 5608 5610 5612 5613 5615 5616 5618 5621 5623 5625 5627 5629 5631
5554 5558 5561 5564 5567 5569 5571 5572 5573 5573 5575 5577 5579 5581 5583 5585 5587 5589 5589 5590 5590 5591 5592 5592 5593 5592 5592 5594 5596 5598 5599 5600 5602 5603 5604 5605 5606 5609 5611 5613 5615 5617 5618
5544 5548 5551 5554 5556 5558 5560 5561 5563 5564 5565 5568 5570 5572 5574 5576 5578 5579 5581 5582 5582 5582 5584 5583 5584 5584 5584 5585 5586 5587 5589 5589 5590 5591 5592 5592 5593 5595 5597 5599 5601 5603 5605
5534 5538 5541 5544 5546 5548 5550 5551 5552 5554 5556 5558 5560 5562 5564 5565 5568 5569 5570 5572 5572 5572 5574 5574 5574 5574 5574 5575 5575 5576 5577 5577 5577 5578 5578 5579 5580 5581 5582 5585 5587 5588 5591
5525 5528 5531 5534 5536 5537 5539 5541 5543 5545 5547 5549 5550 5551 5553 5555 5557 5557 5558 5560 5561 5560 5561 5562 5563 5563 5563 5563 5563 5563 5564 5564 5564 5564 5564 5564 5564 5566 5568 5570 5571 5573 5575
5515 5518 5521 5523 5525 5527 5528 5531 5533 5535 5537 5538 5540 5541 5542 5544 5545 5546 5547 5547 5547 5547 5548 5548 5549 5549 5549 5550 5550 5551 5551 5551 5551 5551 5551 5552 5551 5552 5553 5555 5555 5557 5558
5506 5508 5510 5512 5514 5516 5518 5521 5522 5524 5526 5528 5529 5530 5531 5533 5533 5534 5534 5535 5534 5533 5534 5534 5533 5534 5534 5535 5536 5536 5537 5538 5538 5538 5539 5539 5539 5539 5539 5540 5540 5542 5543